[[{"header":{"parameterUnit":"m.s-1","parameterCategory":2,"la1":30.2991,"la2":30.254,"lo1":-89.0895,"lo2":-89.0444,"dy":0.0017,"dx":0.0017,"nx":28,"ny":28,"refTime":"2024-12-31T09:00:00:Z","depth":"0","parameterNumber":2,"parameterNumberName":"U-component_of_CURRENTS"},"data":[0,0,0,0,0,0,0,0,0,0,0,0,0,0,0,0,0,0,0,0,0,0,0,0,0,0,0,0,0,0,0,0,0,0,0,0,0,0,0,0,0,0,0,0,0,0,0,0,0,0,0,0,0,0,0,0,0,0,-0.2685,-0.2686,0,-0.2717,-0.2717,-0.2717,-0.2684,-0.2683,-0.2682,-0.2681,-0.268,-0.2681,-0.2682,0,0,0,0,0,0,0,0,0,0,0,0,0,-0.2563,-0.2565,-0.2685,-0.2686,-0.2687,-0.2717,-0.2717,-0.2717,-0.2684,-0.2683,-0.2682,-0.2681,-0.268,-0.2681,-0.2682,0,0,0,0,0,0,0,0,0,0,0,0,0,-0.2604,-0.2566,-0.2685,-0.2677,-0.2677,-0.2717,-0.2717,-0.2717,-0.2684,-0.2683,-0.2682,-0.268,-0.268,-0.2681,-0.2682,-0.2718,0,0,-0.2686,-0.2687,0,0,0,0,0,0,0,0,-0.2602,-0.2608,-0.2677,-0.2677,-0.2677,-0.2699,-0.2674,-0.2717,-0.2685,-0.2677,-0.2681,-0.268,-0.2687,-0.2688,-0.2692,-0.2718,-0.2718,-0.2686,-0.2687,-0.2687,-0.2688,0,0,0,0,0,0,0,-0.2599,-0.2606,-0.2694,-0.2678,-0.2678,-0.2661,-0.2665,-0.2682,-0.2686,-0.2678,-0.2676,-0.2687,-0.2686,-0.269,-0.2691,-0.2718,-0.2686,-0.2687,-0.2688,-0.2689,-0.2748,-0.2749,0,0,0,0,0,0,-0.2607,-0.2604,-0.2693,-0.2695,-0.264,-0.2664,-0.2669,-0.269,-0.2686,-0.2686,-0.2688,-0.2685,-0.2689,-0.269,-0.2691,-0.2715,-0.2687,-0.2689,-0.2689,-0.2747,-0.2748,-0.2749,0,0,0,0,0,0,-0.2604,-0.2615,-0.2691,-0.2652,-0.2661,-0.2669,-0.2692,-0.2691,-0.269,-0.2695,-0.2693,-0.2687,-0.2688,-0.2689,-0.2692,-0.2715,-0.2689,-0.269,-0.2746,-0.2747,-0.2749,-0.2775,0,0,0,0,0,0,-0.2601,-0.2614,-0.2629,-0.2654,-0.2664,-0.271,-0.2694,-0.2693,-0.2701,-0.2697,-0.2694,-0.2692,-0.2687,-0.269,-0.2693,-0.2717,-0.2691,-0.2745,-0.2747,-0.2748,-0.2773,-0.2777,-0.278,0,0,0,0,0,-0.2596,-0.2625,-0.263,-0.2641,-0.2687,-0.2711,-0.2714,-0.2711,-0.2702,-0.2703,-0.2694,-0.2692,-0.2702,-0.2691,-0.2695,-0.2719,-0.2744,-0.2746,-0.2748,-0.2771,-0.2776,-0.278,0,0,0,0,0,0,-0.2572,-0.2626,-0.2631,-0.2673,-0.2688,-0.2707,-0.2716,-0.2715,-0.2711,-0.2703,-0.2699,-0.2698,-0.2712,-0.2712,-0.27,-0.2741,-0.2726,-0.2728,-0.2742,-0.2747,-0.275,-0.2764,-0.2692,0,0,0,0,0,-0.258,-0.2617,-0.2651,-0.2679,-0.2692,-0.2704,-0.2714,-0.2711,-0.2716,-0.2712,-0.2716,-0.2718,-0.2727,-0.273,-0.2739,-0.2761,-0.2726,-0.278,-0.2784,-0.2787,-0.2801,-0.2755,-0.2755,-0.2755,-0.2755,-0.2755,0,0,-0.2583,-0.2612,-0.2635,-0.2677,-0.269,-0.2709,-0.2705,-0.272,-0.2738,-0.2715,-0.2737,-0.2733,-0.2735,-0.2755,-0.2763,-0.2754,-0.2764,-0.2789,-0.2792,-0.2805,-0.2756,-0.2756,-0.2756,-0.2756,-0.2756,-0.2756,0,0,-0.2584,-0.2629,-0.2648,-0.2668,-0.2692,-0.2711,-0.2716,-0.2738,-0.2751,-0.2771,-0.276,-0.2763,-0.2785,-0.2787,-0.2792,-0.2824,-0.2785,-0.2832,-0.2863,-0.2817,-0.2816,-0.2815,-0.2747,-0.274,-0.2833,-0.2834,-0.2834,0,-0.2578,-0.2604,-0.2653,-0.2666,-0.268,-0.2712,-0.2717,-0.2754,-0.2772,-0.278,-0.2779,-0.2793,-0.2803,-0.2815,-0.2837,-0.2833,-0.279,-0.2844,-0.282,-0.2819,-0.2817,-0.2748,-0.2739,-0.2835,-0.2835,-0.2835,-0.2835,0,-0.2583,-0.2602,-0.2615,-0.2651,-0.2678,-0.2689,-0.2745,-0.2771,-0.2793,-0.2813,-0.2832,-0.284,-0.2835,-0.2856,-0.2866,-0.2871,-0.2835,-0.2827,-0.2805,-0.2818,-0.2744,-0.2735,-0.2837,-0.2837,-0.2836,-0.2836,0,0,-0.2553,-0.2607,-0.2606,-0.2605,-0.2664,-0.2679,-0.2737,-0.2776,-0.2787,-0.2832,-0.2832,-0.2885,-0.2875,-0.2882,-0.2886,-0.2881,-0.284,-0.2864,-0.286,-0.2789,-0.2714,-0.2583,-0.256,-0.2819,-0.2818,-0.2818,-0.2657,0,-0.2522,-0.2534,-0.258,-0.2588,-0.259,-0.2653,-0.2696,-0.2745,-0.2785,-0.2805,-0.2842,-0.2846,-0.2891,-0.2873,-0.2881,-0.2853,-0.2821,-0.2883,-0.272,-0.2715,-0.2591,-0.2547,-0.2443,-0.2283,-0.2648,-0.2646,-0.2645,0,-0.2483,-0.2496,-0.2494,-0.253,-0.254,-0.2561,-0.261,-0.2653,-0.2718,-0.2744,-0.2769,-0.2792,-0.2815,-0.2835,-0.2792,-0.2825,-0.2778,-0.2758,-0.275,-0.2617,-0.2567,-0.2335,-0.2252,-0.2263,-0.263,-0.2632,-0.2633,0,-0.2387,-0.2427,-0.2418,-0.2432,-0.2491,-0.2504,-0.2543,-0.2613,-0.2634,-0.2691,-0.2685,-0.2724,-0.2703,-0.2695,-0.2682,-0.2723,-0.2605,-0.2634,-0.2464,-0.2453,-0.2328,-0.2307,-0.2233,-0.2574,-0.2574,-0.2575,-0.2575,0,-0.2306,-0.229,-0.2371,-0.2354,-0.2341,-0.2425,-0.2417,-0.247,-0.2525,-0.2506,-0.2627,-0.259,-0.2669,-0.2626,-0.2631,-0.2499,-0.254,-0.2452,-0.2399,-0.2331,-0.2313,-0.2289,-0.2335,-0.2569,-0.257,-0.2571,-0.2572,0,-0.2155,-0.2217,-0.2193,-0.2259,-0.2278,-0.226,-0.232,-0.2313,-0.2399,-0.237,-0.238,-0.2459,-0.2394,-0.2435,-0.2384,-0.2376,-0.2247,-0.2237,-0.2144,-0.2083,-0.1945,-0.1995,-0.1843,-0.179,-0.2022,-0.2018,-0.2014,0,-0.2058,-0.2039,-0.209,-0.2073,-0.2087,-0.2099,-0.2097,-0.221,-0.2203,-0.2255,-0.2208,-0.2193,-0.2134,-0.2039,-0.2013,-0.1942,-0.2016,-0.1818,-0.1891,-0.19,-0.1918,-0.1967,-0.1941,-0.1729,-0.1724,-0.1719,-0.1716,0,-0.1853,-0.1888,-0.1875,-0.1866,-0.1858,-0.1859,-0.1874,-0.1864,-0.1963,-0.1963,-0.1919,-0.1893,-0.1807,-0.1709,-0.1649,-0.1611,-0.1776,-0.1717,-0.1755,-0.1698,-0.1719,-0.1653,-0.1874,-0.1675,-0.1679,-0.1682,-0.1684,-0.1685,-0.1677,-0.1638,-0.1651,-0.1631,-0.1628,-0.1609,-0.1574,-0.1605,-0.1586,-0.1576,-0.1613,-0.1563,-0.1535,-0.1429,-0.1378,-0.131,-0.1402,-0.1333,-0.1393,-0.1443,-0.1395,-0.1507,-0.1235,-0.1236,-0.1238,-0.1239,-0.124,0,-0.1459,-0.1459,-0.1422,-0.1405,-0.1357,-0.1428,-0.141,-0.1375,-0.1314,-0.1323,-0.1289,-0.1272,-0.1175,-0.1183,-0.1122,-0.1067,-0.1078,-0.1065,-0.1159,-0.1148,-0.1251,-0.1244,-0.0925,-0.0925,-0.0925,-0.0925,-0.0925,-0.0925,-0.1339,-0.1259,-0.1275,-0.1157,-0.1152,-0.1071,-0.1049,-0.1018,-0.1017,-0.0972,-0.0994,-0.1038,-0.1092,-0.1169,-0.1087,-0.1015,-0.1043,-0.0958,-0.1025,-0.1172,-0.1206,-0.1237,-0.1241,-0.0928,-0.0928,-0.0876,-0.0876,-0.0876]},{"header":{"parameterUnit":"m.s-1","parameterCategory":2,"la1":30.2991,"la2":30.254,"lo1":-89.0895,"lo2":-89.0444,"dy":0.0017,"dx":0.0017,"nx":28,"ny":28,"refTime":"2024-12-31T09:00:00:Z","depth":"0","parameterNumber":3,"parameterNumberName":"V-component_of_CURRENTS"},"data":[0,0,0,0,0,0,0,0,0,0,0,0,0,0,0,0,0,0,0,0,0,0,0,0,0,0,0,0,0,0,0,0,0,0,0,0,0,0,0,0,0,0,0,0,0,0,0,0,0,0,0,0,0,0,0,0,0,0,-0.0804,-0.0803,0,-0.0698,-0.0697,-0.0695,-0.0634,-0.0635,-0.0635,-0.0635,-0.0506,-0.0502,-0.0499,0,0,0,0,0,0,0,0,0,0,0,0,0,-0.0836,-0.0836,-0.0804,-0.0803,-0.0802,-0.0699,-0.0697,-0.0695,-0.0634,-0.0635,-0.0635,-0.0635,-0.0507,-0.0503,-0.0498,0,0,0,0,0,0,0,0,0,0,0,0,0,-0.0782,-0.0836,-0.0804,-0.0762,-0.0758,-0.0699,-0.0697,-0.0695,-0.0634,-0.0635,-0.0635,-0.0635,-0.0508,-0.0503,-0.0498,-0.0461,0,0,-0.0482,-0.0479,0,0,0,0,0,0,0,0,-0.0785,-0.078,-0.0769,-0.0765,-0.076,-0.0683,-0.0661,-0.0617,-0.0634,-0.0677,-0.0635,-0.0635,-0.0565,-0.0555,-0.053,-0.0455,-0.045,-0.0481,-0.0478,-0.0476,-0.0474,0,0,0,0,0,0,0,-0.0789,-0.0784,-0.0758,-0.0768,-0.0763,-0.0709,-0.0702,-0.0651,-0.0618,-0.0673,-0.067,-0.0664,-0.0562,-0.0535,-0.0526,-0.0448,-0.0481,-0.0477,-0.0473,-0.0471,-0.0325,-0.0324,0,0,0,0,0,0,-0.0816,-0.0788,-0.0762,-0.0755,-0.0778,-0.0709,-0.0701,-0.0704,-0.0619,-0.0607,-0.0664,-0.0662,-0.0544,-0.0533,-0.0522,-0.0492,-0.0476,-0.0471,-0.0468,-0.0326,-0.0325,-0.0324,0,0,0,0,0,0,-0.0817,-0.0815,-0.0766,-0.0772,-0.0762,-0.071,-0.0713,-0.0702,-0.0679,-0.0613,-0.06,-0.0653,-0.0544,-0.0529,-0.0473,-0.0486,-0.0468,-0.0463,-0.0326,-0.0325,-0.0324,-0.042,0,0,0,0,0,0,-0.0819,-0.0816,-0.0827,-0.0774,-0.0763,-0.0741,-0.0713,-0.07,-0.0677,-0.0673,-0.0599,-0.0587,-0.0543,-0.0481,-0.0467,-0.0478,-0.0459,-0.0327,-0.0326,-0.0325,-0.0417,-0.0422,-0.0426,0,0,0,0,0,-0.082,-0.0836,-0.0828,-0.0825,-0.078,-0.0742,-0.0731,-0.069,-0.0677,-0.0669,-0.0612,-0.0589,-0.0463,-0.0476,-0.046,-0.047,-0.0328,-0.0326,-0.0325,-0.0415,-0.0421,-0.0426,0,0,0,0,0,0,-0.0854,-0.083,-0.082,-0.0828,-0.0794,-0.0734,-0.0725,-0.0696,-0.0643,-0.0634,-0.0575,-0.0559,-0.0513,-0.047,-0.0486,-0.042,-0.0394,-0.0389,-0.0468,-0.0472,-0.0477,-0.0518,-0.0455,0,0,0,0,0,-0.0869,-0.0876,-0.0838,-0.0844,-0.0832,-0.0779,-0.0759,-0.0726,-0.0675,-0.0652,-0.0608,-0.0549,-0.0493,-0.0468,-0.0411,-0.0375,-0.0331,-0.0369,-0.0374,-0.0378,-0.0398,-0.0341,-0.0343,-0.0319,-0.0319,-0.0319,0,0,-0.0888,-0.0873,-0.0879,-0.0852,-0.0822,-0.0801,-0.0767,-0.0735,-0.0724,-0.0645,-0.0621,-0.056,-0.0483,-0.0442,-0.0419,-0.0412,-0.0355,-0.0376,-0.0381,-0.0399,-0.0339,-0.0342,-0.0344,-0.0318,-0.0318,-0.0318,0,0,-0.0908,-0.0912,-0.0914,-0.0891,-0.085,-0.0818,-0.0816,-0.0761,-0.0747,-0.0705,-0.0647,-0.0599,-0.0519,-0.0476,-0.0439,-0.0431,-0.0375,-0.0407,-0.0471,-0.0415,-0.0417,-0.0419,-0.0349,-0.0343,-0.0416,-0.0417,-0.0417,0,-0.0928,-0.0929,-0.0907,-0.0894,-0.0886,-0.0834,-0.0827,-0.08,-0.0736,-0.0733,-0.071,-0.06,-0.054,-0.0494,-0.0491,-0.0447,-0.0396,-0.0464,-0.0424,-0.0425,-0.0425,-0.0353,-0.0346,-0.0421,-0.042,-0.042,-0.042,0,-0.0942,-0.094,-0.094,-0.0917,-0.0904,-0.0889,-0.0857,-0.0842,-0.082,-0.0794,-0.0755,-0.0673,-0.0613,-0.0584,-0.0535,-0.0507,-0.0463,-0.0435,-0.0423,-0.0434,-0.0356,-0.0347,-0.0427,-0.0426,-0.0424,-0.0423,0,0,-0.0986,-0.0959,-0.0958,-0.0956,-0.0918,-0.0909,-0.0903,-0.0887,-0.0885,-0.0843,-0.0841,-0.076,-0.0726,-0.0682,-0.0617,-0.0578,-0.0526,-0.0518,-0.0513,-0.047,-0.0387,-0.0325,-0.0308,-0.0491,-0.049,-0.049,-0.0326,0,-0.1,-0.0996,-0.098,-0.0981,-0.0977,-0.095,-0.0953,-0.0933,-0.0909,-0.0894,-0.0843,-0.08,-0.076,-0.0722,-0.0684,-0.0548,-0.0509,-0.0572,-0.0364,-0.0358,-0.032,-0.0299,-0.0271,-0.0121,-0.0317,-0.0316,-0.0314,0,-0.101,-0.101,-0.1016,-0.1019,-0.1019,-0.1015,-0.1019,-0.101,-0.0979,-0.0962,-0.0931,-0.0876,-0.081,-0.0774,-0.0606,-0.0644,-0.0538,-0.0448,-0.0439,-0.0349,-0.028,-0.0141,-0.0097,0.0021,-0.03,-0.0301,-0.0302,0,-0.1039,-0.1038,-0.1053,-0.1051,-0.1039,-0.1052,-0.1053,-0.1031,-0.1024,-0.1,-0.0971,-0.091,-0.0831,-0.0729,-0.0551,-0.057,-0.0354,-0.0347,-0.02,-0.0193,-0.0114,-0.0102,0.0046,-0.0253,-0.0253,-0.0254,-0.0254,0,-0.1052,-0.106,-0.1071,-0.1071,-0.1093,-0.1088,-0.1097,-0.1087,-0.1064,-0.1031,-0.1005,-0.0939,-0.0814,-0.0675,-0.0554,-0.0332,-0.0348,-0.0209,-0.015,-0.0141,-0.0134,0.0016,0.0055,-0.0247,-0.0249,-0.025,-0.0251,0,-0.1042,-0.1056,-0.1063,-0.1082,-0.1092,-0.1103,-0.1108,-0.1104,-0.1089,-0.1036,-0.1025,-0.0926,-0.0742,-0.0605,-0.0387,-0.0292,-0.0028,-0.0042,-0.0035,0.002,0.0237,0.0269,0.0482,0.0556,0.0135,0.0138,0.014,0,-0.1026,-0.103,-0.1058,-0.1067,-0.1069,-0.1092,-0.1093,-0.1105,-0.1085,-0.1002,-0.0962,-0.0807,-0.0673,-0.0357,-0.017,0.0045,0.0118,0.0198,0.0147,0.0257,0.0337,0.0357,0.0403,0.0231,0.0234,0.0236,0.0238,0,-0.098,-0.0994,-0.1,-0.103,-0.1046,-0.1061,-0.1067,-0.1059,-0.1038,-0.0986,-0.0863,-0.0762,-0.0472,-0.022,0.004,0.0166,0.0287,0.025,0.0366,0.042,0.0452,0.0549,0.0124,0.0257,0.0255,0.0254,0.0253,0.0252,-0.0932,-0.0938,-0.0959,-0.0986,-0.1006,-0.102,-0.102,-0.1005,-0.0967,-0.0873,-0.0777,-0.0607,-0.028,0.0084,0.0235,0.0526,0.0481,0.0596,0.0629,0.0642,0.0696,0.0316,0.0508,0.0507,0.0507,0.0506,0.0506,0,-0.0878,-0.0901,-0.0918,-0.0958,-0.0973,-0.0996,-0.0989,-0.0968,-0.0903,-0.0797,-0.0678,-0.0337,0.001,0.0304,0.0707,0.0878,0.0897,0.0959,0.0982,0.1013,0.0691,0.0676,0.091,0.091,0.091,0.091,0.091,0.091,-0.085,-0.0862,-0.089,-0.0917,-0.0943,-0.0949,-0.094,-0.0886,-0.0811,-0.0619,-0.0445,-0.0323,0.0092,0.0765,0.1159,0.1202,0.1331,0.1334,0.1405,0.1161,0.1128,0.1097,0.1093,0.1411,0.1411,0.171,0.1713,0.1715]}],[{"header":{"parameterUnit":"m.s-1","parameterCategory":2,"la1":30.2991,"la2":30.254,"lo1":-89.0895,"lo2":-89.0444,"dy":0.0017,"dx":0.0017,"nx":28,"ny":28,"refTime":"2024-12-31T09:00:00:Z","depth":"2","parameterNumber":2,"parameterNumberName":"U-component_of_CURRENTS"},"data":[0,0,0,0,0,0,0,0,0,0,0,0,0,0,0,0,0,0,0,0,0,0,0,0,0,0,0,0,0,0,0,0,0,0,0,0,0,0,0,0,0,0,0,0,0,0,0,0,0,0,0,0,0,0,0,0,0,0,-0.1964,-0.1965,0,-0.2075,-0.2077,-0.2078,-0.2139,-0.2139,-0.2139,-0.2139,-0.2111,-0.211,-0.2109,0,0,0,0,0,0,0,0,0,0,0,0,0,-0.19,-0.1901,-0.1964,-0.1965,-0.1966,-0.2075,-0.2077,-0.2078,-0.2139,-0.2139,-0.2139,-0.2139,-0.2111,-0.211,-0.2109,0,0,0,0,0,0,0,0,0,0,0,0,0,-0.1961,-0.1901,-0.1963,-0.201,-0.2015,-0.2075,-0.2077,-0.2079,-0.2139,-0.2139,-0.2139,-0.2139,-0.2112,-0.211,-0.2109,-0.2096,0,0,-0.2105,-0.2104,0,0,0,0,0,0,0,0,-0.1957,-0.1963,-0.2002,-0.2007,-0.2013,-0.2094,-0.2044,-0.2078,-0.2139,-0.2092,-0.2139,-0.214,-0.2092,-0.2092,-0.2115,-0.2095,-0.2093,-0.2105,-0.2104,-0.2103,-0.2103,0,0,0,0,0,0,0,-0.1953,-0.1959,-0.2008,-0.2003,-0.201,-0.2059,-0.2067,-0.2052,-0.2086,-0.2096,-0.21,-0.2113,-0.2094,-0.2116,-0.2114,-0.2093,-0.2105,-0.2104,-0.2103,-0.2102,-0.2101,-0.2102,0,0,0,0,0,0,-0.1934,-0.1955,-0.2004,-0.2011,-0.1985,-0.2059,-0.2068,-0.2067,-0.209,-0.2095,-0.2113,-0.2115,-0.2118,-0.2116,-0.2113,-0.2112,-0.2103,-0.2102,-0.2101,-0.21,-0.2101,-0.2102,0,0,0,0,0,0,-0.1932,-0.1937,-0.2,-0.1987,-0.1998,-0.2059,-0.2058,-0.2069,-0.2086,-0.2104,-0.2107,-0.2118,-0.2118,-0.2115,-0.2108,-0.211,-0.2102,-0.21,-0.21,-0.2101,-0.2102,-0.21,0,0,0,0,0,0,-0.1929,-0.1935,-0.1935,-0.1985,-0.1998,-0.2015,-0.2059,-0.2071,-0.2094,-0.2099,-0.2109,-0.2108,-0.2118,-0.211,-0.2106,-0.2108,-0.2099,-0.2099,-0.21,-0.2101,-0.2099,-0.2101,-0.2102,0,0,0,0,0,-0.1927,-0.1924,-0.1933,-0.194,-0.1992,-0.2014,-0.2024,-0.2071,-0.2094,-0.2089,-0.2115,-0.2107,-0.2117,-0.2109,-0.2105,-0.2106,-0.2098,-0.21,-0.2101,-0.2098,-0.21,-0.2102,0,0,0,0,0,0,-0.1899,-0.1932,-0.1943,-0.195,-0.1969,-0.2024,-0.204,-0.2062,-0.2083,-0.2102,-0.2106,-0.2106,-0.2112,-0.2105,-0.2095,-0.2115,-0.211,-0.2111,-0.2109,-0.2111,-0.2113,-0.2127,-0.2098,0,0,0,0,0,-0.189,-0.1905,-0.1925,-0.1939,-0.194,-0.1985,-0.2005,-0.2038,-0.2065,-0.2077,-0.2082,-0.2101,-0.2118,-0.2109,-0.2124,-0.2111,-0.2103,-0.2115,-0.2117,-0.2118,-0.213,-0.2138,-0.2141,-0.2108,-0.2108,-0.2108,0,0,-0.1892,-0.1911,-0.1923,-0.1936,-0.1962,-0.1982,-0.1997,-0.2031,-0.2058,-0.2066,-0.2092,-0.2105,-0.212,-0.2132,-0.2132,-0.212,-0.2115,-0.2121,-0.2121,-0.2132,-0.214,-0.2143,-0.2146,-0.2109,-0.2109,-0.2109,0,0,-0.1896,-0.1906,-0.1909,-0.1926,-0.1959,-0.1989,-0.1988,-0.2027,-0.2043,-0.2058,-0.2096,-0.2107,-0.2105,-0.2134,-0.2144,-0.2156,-0.2134,-0.2157,-0.216,-0.2167,-0.217,-0.2172,-0.2123,-0.2122,-0.2145,-0.2145,-0.2145,0,-0.1895,-0.19,-0.1914,-0.1923,-0.1947,-0.1984,-0.1996,-0.2024,-0.2062,-0.2074,-0.2062,-0.2118,-0.2113,-0.2157,-0.2166,-0.2159,-0.2143,-0.2146,-0.2168,-0.2171,-0.2173,-0.2123,-0.2121,-0.2145,-0.2145,-0.2145,-0.2145,0,-0.1901,-0.1909,-0.1914,-0.1942,-0.1963,-0.1987,-0.2019,-0.2044,-0.2062,-0.2086,-0.2116,-0.2128,-0.2159,-0.2157,-0.2157,-0.2187,-0.2161,-0.2177,-0.2159,-0.2176,-0.2122,-0.212,-0.2145,-0.2145,-0.2145,-0.2145,0,0,-0.1858,-0.1909,-0.1893,-0.1919,-0.1978,-0.1991,-0.2041,-0.2072,-0.21,-0.2124,-0.2143,-0.2176,-0.2186,-0.2201,-0.2212,-0.2208,-0.2183,-0.2192,-0.2192,-0.2135,-0.2158,-0.2049,-0.2036,-0.2204,-0.2205,-0.2205,-0.2097,0,-0.1844,-0.1856,-0.1888,-0.1921,-0.194,-0.2003,-0.2038,-0.2089,-0.2111,-0.2137,-0.2168,-0.2192,-0.2203,-0.221,-0.2217,-0.2201,-0.2185,-0.2209,-0.2158,-0.2156,-0.2052,-0.2033,-0.1906,-0.1793,-0.2095,-0.2095,-0.2094,0,-0.1812,-0.183,-0.1847,-0.1918,-0.1924,-0.196,-0.2024,-0.2063,-0.2127,-0.2141,-0.2193,-0.2216,-0.2239,-0.2235,-0.2223,-0.2236,-0.2201,-0.2178,-0.2174,-0.2079,-0.2045,-0.1835,-0.1777,-0.2091,-0.2091,-0.2091,-0.2091,0,-0.1752,-0.1792,-0.1806,-0.1833,-0.192,-0.1944,-0.1987,-0.2059,-0.2081,-0.215,-0.2155,-0.2217,-0.2208,-0.222,-0.2173,-0.2198,-0.2126,-0.2154,-0.2026,-0.2016,-0.1901,-0.1879,-0.2148,-0.2148,-0.2148,-0.2149,-0.2149,0,-0.1719,-0.1721,-0.1781,-0.1792,-0.1819,-0.19,-0.193,-0.1987,-0.2053,-0.2057,-0.2149,-0.2145,-0.2203,-0.2173,-0.2161,-0.206,-0.2116,-0.2016,-0.1988,-0.189,-0.1871,-0.2142,-0.2143,-0.2145,-0.2146,-0.2146,-0.2147,0,-0.1646,-0.1685,-0.1713,-0.1779,-0.1797,-0.1815,-0.1884,-0.1898,-0.1978,-0.1986,-0.2005,-0.2066,-0.202,-0.2043,-0.2015,-0.1996,-0.1946,-0.19,-0.175,-0.1707,-0.1832,-0.1834,-0.1751,-0.1746,-0.1742,-0.1739,-0.1736,0,-0.1601,-0.1615,-0.1672,-0.167,-0.1694,-0.1733,-0.1748,-0.1847,-0.1855,-0.1913,-0.1889,-0.1885,-0.1841,-0.1763,-0.1737,-0.1682,-0.179,-0.1539,-0.1582,-0.1813,-0.1795,-0.1803,-0.181,-0.1409,-0.1404,-0.14,-0.1396,0,-0.1519,-0.1548,-0.1557,-0.1563,-0.1572,-0.1593,-0.1618,-0.1622,-0.171,-0.1714,-0.1686,-0.1666,-0.1598,-0.149,-0.1436,-0.1402,-0.1548,-0.1448,-0.173,-0.1534,-0.1484,-0.1469,-0.1488,-0.1358,-0.1362,-0.1365,-0.1367,-0.1368,-0.1428,-0.1418,-0.1429,-0.143,-0.144,-0.1428,-0.1405,-0.1429,-0.1424,-0.1408,-0.1453,-0.1388,-0.1385,-0.1233,-0.1162,-0.1133,-0.125,-0.1237,-0.1254,-0.1274,-0.1259,-0.1206,-0.1021,-0.1023,-0.1024,-0.1026,-0.1027,0,-0.1295,-0.1296,-0.1286,-0.1275,-0.1242,-0.1298,-0.1289,-0.125,-0.1191,-0.1199,-0.1166,-0.105,-0.0968,-0.0984,-0.0875,-0.0851,-0.0882,-0.0826,-0.0886,-0.0922,-0.0954,-0.0927,-0.0599,-0.0598,-0.0597,-0.0596,0,0,-0.1216,-0.1162,-0.117,-0.1078,-0.1075,-0.1002,-0.0979,-0.0941,-0.0932,-0.0864,-0.0846,-0.0906,-0.0945,-0.0777,-0.0728,-0.065,-0.0782,-0.0611,-0.0951,-0.1056,-0.1087,-0.1181,-0.1177,0,0,0,0,0]},{"header":{"parameterUnit":"m.s-1","parameterCategory":2,"la1":30.2991,"la2":30.254,"lo1":-89.0895,"lo2":-89.0444,"dy":0.0017,"dx":0.0017,"nx":28,"ny":28,"refTime":"2024-12-31T09:00:00:Z","depth":"2","parameterNumber":3,"parameterNumberName":"V-component_of_CURRENTS"},"data":[0,0,0,0,0,0,0,0,0,0,0,0,0,0,0,0,0,0,0,0,0,0,0,0,0,0,0,0,0,0,0,0,0,0,0,0,0,0,0,0,0,0,0,0,0,0,0,0,0,0,0,0,0,0,0,0,0,0,-0.005,-0.0049,0,0.0031,0.0032,0.0033,0.0046,0.0045,0.0044,0.0043,0.0117,0.0119,0.0122,0,0,0,0,0,0,0,0,0,0,0,0,0,-0.0102,-0.0102,-0.005,-0.0049,-0.0048,0.0031,0.0032,0.0033,0.0046,0.0045,0.0044,0.0043,0.0116,0.0119,0.0122,0,0,0,0,0,0,0,0,0,0,0,0,0,-0.0056,-0.0102,-0.005,-0.0033,-0.003,0.0031,0.0032,0.0033,0.0046,0.0045,0.0044,0.0043,0.0115,0.0119,0.0123,0.017,0,0,0.0135,0.0137,0,0,0,0,0,0,0,0,-0.0059,-0.0054,-0.0036,-0.0034,-0.0031,0.0027,0.0041,0.0079,0.0046,0.0017,0.0043,0.0042,0.0087,0.0093,0.0111,0.0173,0.0176,0.0135,0.0138,0.0139,0.0141,0,0,0,0,0,0,0,-0.0062,-0.0057,-0.0018,-0.0035,-0.0032,0.0003,0.0007,0.0048,0.0057,0.002,0.0021,0.003,0.0088,0.0107,0.0113,0.0177,0.0135,0.0139,0.0141,0.0143,0.0222,0.0222,0,0,0,0,0,0,-0.0076,-0.006,-0.002,-0.0015,-0.0048,0.0004,0.0009,0.001,0.0057,0.0063,0.0031,0.003,0.0101,0.0108,0.0116,0.0128,0.0139,0.0143,0.0145,0.0222,0.0222,0.0222,0,0,0,0,0,0,-0.0078,-0.0074,-0.0024,-0.0036,-0.0027,0.0006,0.0006,0.0012,0.003,0.0065,0.0071,0.0043,0.0101,0.011,0.0138,0.0133,0.0145,0.0149,0.0223,0.0222,0.0222,0.0183,0,0,0,0,0,0,-0.008,-0.0075,-0.0084,-0.0037,-0.0027,-0.0005,0.0008,0.0014,0.0037,0.0037,0.0078,0.0084,0.01,0.0131,0.0142,0.0139,0.0152,0.0223,0.0222,0.0222,0.0185,0.0182,0.0179,0,0,0,0,0,-0.0082,-0.0087,-0.0086,-0.0081,-0.004,-0.0006,0.0003,0.0023,0.0039,0.0038,0.0066,0.0082,0.0135,0.0135,0.0147,0.0145,0.0223,0.0223,0.0222,0.0186,0.0182,0.0179,0,0,0,0,0,0,-0.0118,-0.0085,-0.0082,-0.008,-0.0055,-0.0004,0.0005,0.0028,0.0054,0.0049,0.0091,0.0098,0.0111,0.014,0.0139,0.0164,0.0178,0.018,0.0147,0.0144,0.0141,0.0131,0.0155,0,0,0,0,0,-0.013,-0.0132,-0.009,-0.0096,-0.0076,-0.0032,-0.0015,-0.0005,0.0028,0.0039,0.0069,0.0098,0.0122,0.0141,0.0158,0.0191,0.0215,0.0193,0.019,0.0187,0.0186,0.0202,0.02,0.022,0.022,0.022,0,0,-0.0145,-0.0131,-0.0132,-0.0105,-0.0076,-0.0064,-0.0025,-0.0007,-0.0006,0.0044,0.0058,0.0086,0.0125,0.014,0.0151,0.0165,0.0198,0.0187,0.0184,0.0185,0.0201,0.0199,0.0198,0.0219,0.0219,0.0219,0,0,-0.017,-0.016,-0.0161,-0.0145,-0.0117,-0.0093,-0.0087,-0.0041,-0.0026,-0.0,0.0023,0.0054,0.0101,0.0122,0.0144,0.0143,0.0172,0.0143,0.0135,0.0149,0.0148,0.0147,0.0191,0.0194,0.0152,0.0152,0.0152,0,-0.0198,-0.0195,-0.0158,-0.0155,-0.0149,-0.0106,-0.0108,-0.0081,-0.0042,-0.0027,-0.0011,0.0052,0.0093,0.0117,0.0118,0.0137,0.0155,0.0146,0.0145,0.0144,0.0144,0.0189,0.0193,0.015,0.015,0.0151,0.0151,0,-0.0211,-0.022,-0.0215,-0.0207,-0.0195,-0.0193,-0.0155,-0.0146,-0.0114,-0.0083,-0.0054,0.0002,0.0038,0.006,0.01,0.0114,0.0132,0.013,0.0153,0.014,0.0189,0.0194,0.0147,0.0148,0.0149,0.0149,0,0,-0.0237,-0.0231,-0.0219,-0.0243,-0.0227,-0.0218,-0.0217,-0.0191,-0.0184,-0.0141,-0.0123,-0.0056,-0.0022,0.0004,0.0048,0.0085,0.0122,0.0111,0.0113,0.0154,0.0171,0.0193,0.0201,0.0111,0.0111,0.0111,0.0213,0,-0.0261,-0.0272,-0.0256,-0.0286,-0.0301,-0.0279,-0.028,-0.0261,-0.0223,-0.0199,-0.0132,-0.0104,-0.0046,-0.0028,0.0015,0.0092,0.0129,0.0096,0.018,0.0183,0.0202,0.0205,0.019,0.0279,0.0218,0.0219,0.0219,0,-0.0275,-0.0287,-0.0314,-0.0351,-0.0345,-0.036,-0.0358,-0.0354,-0.031,-0.0281,-0.024,-0.0188,-0.0117,-0.008,0.0043,0.0015,0.0088,0.0151,0.0156,0.0191,0.0212,0.0279,0.029,0.0228,0.0227,0.0226,0.0226,0,-0.0315,-0.033,-0.0361,-0.0371,-0.0394,-0.0406,-0.0408,-0.038,-0.0375,-0.0338,-0.0321,-0.0247,-0.0197,-0.0113,0.004,0.0034,0.0175,0.0176,0.0262,0.0266,0.0279,0.0283,0.0239,0.0239,0.0238,0.0238,0.0238,0,-0.0361,-0.0385,-0.0387,-0.0408,-0.0454,-0.0451,-0.0479,-0.0467,-0.0449,-0.0436,-0.037,-0.0337,-0.0204,-0.0099,0.0016,0.0169,0.0153,0.0266,0.0288,0.0268,0.0269,0.0238,0.0237,0.0242,0.0241,0.024,0.024,0,-0.0419,-0.0411,-0.0468,-0.0483,-0.0488,-0.0523,-0.0535,-0.0544,-0.0521,-0.0506,-0.05,-0.0394,-0.0255,-0.011,0.0055,0.015,0.028,0.0329,0.0315,0.0333,0.037,0.0366,0.0434,0.0435,0.0436,0.0437,0.0438,0,-0.0448,-0.0485,-0.0518,-0.0541,-0.0553,-0.0589,-0.0607,-0.0595,-0.0594,-0.0528,-0.0518,-0.0392,-0.0286,-0.0032,0.014,0.0328,0.0324,0.0419,0.0398,0.0373,0.0388,0.0381,0.0375,0.0416,0.0417,0.0417,0.0418,0,-0.052,-0.0532,-0.0561,-0.0604,-0.0633,-0.0666,-0.0678,-0.0687,-0.0653,-0.0618,-0.053,-0.0443,-0.0208,0.0,0.023,0.0337,0.0386,0.0435,0.0408,0.0359,0.0362,0.0374,0.0368,0.0422,0.0422,0.0421,0.0421,0.0421,-0.0562,-0.0598,-0.0621,-0.0665,-0.0695,-0.0715,-0.0724,-0.0709,-0.069,-0.0605,-0.0532,-0.0378,-0.0195,0.0136,0.0296,0.0444,0.0441,0.0487,0.0483,0.0479,0.0449,0.0452,0.0527,0.0527,0.0527,0.0527,0.0527,0,-0.06,-0.0623,-0.0668,-0.0707,-0.0736,-0.0742,-0.0745,-0.0725,-0.0672,-0.0587,-0.0483,-0.0273,-0.005,0.0134,0.0372,0.0511,0.0494,0.0531,0.0484,0.048,0.0476,0.0443,0.0521,0.0521,0.0521,0.0521,0,0,-0.0615,-0.0654,-0.0671,-0.0718,-0.0743,-0.0755,-0.0747,-0.0696,-0.0626,-0.0517,-0.0408,-0.0267,-0.0044,0.0122,0.0294,0.0416,0.0409,0.0425,0.0419,0.034,0.0334,0.0444,0.0388,0,0,0,0,0]}],[{"header":{"parameterUnit":"m.s-1","parameterCategory":2,"la1":30.2991,"la2":30.254,"lo1":-89.0895,"lo2":-89.0444,"dy":0.0017,"dx":0.0017,"nx":28,"ny":28,"refTime":"2024-12-31T09:00:00:Z","depth":"4","parameterNumber":2,"parameterNumberName":"U-component_of_CURRENTS"},"data":[0,0,0,0,0,0,0,0,0,0,0,0,0,0,0,0,0,0,0,0,0,0,0,0,0,0,0,0,0,0,0,0,0,0,0,0,0,0,0,0,0,0,0,0,0,0,0,0,0,0,0,0,0,0,0,0,0,0,-0.1039,-0.1039,0,-0.1063,-0.1064,-0.1064,-0.1085,-0.1085,-0.1085,-0.1084,-0.1101,-0.1102,-0.1102,0,0,0,0,0,0,0,0,0,0,0,0,0,-0.101,-0.1011,-0.1039,-0.1039,-0.1039,-0.1063,-0.1064,-0.1064,-0.1085,-0.1085,-0.1085,-0.1084,-0.1101,-0.1102,-0.1102,0,0,0,0,0,0,0,0,0,0,0,0,0,-0.103,-0.1011,-0.1039,-0.105,-0.1051,-0.1063,-0.1064,-0.1065,-0.1085,-0.1085,-0.1084,-0.1084,-0.1101,-0.1102,-0.1102,-0.1109,0,0,-0.1105,-0.1105,0,0,0,0,0,0,0,0,-0.1029,-0.1032,-0.1049,-0.1049,-0.105,-0.1068,-0.1059,-0.1078,-0.1085,-0.1075,-0.1084,-0.1084,-0.1087,-0.1089,-0.1099,-0.111,-0.1111,-0.1105,-0.1105,-0.1106,-0.1106,0,0,0,0,0,0,0,-0.1028,-0.1031,-0.1052,-0.1048,-0.105,-0.1053,-0.1056,-0.1063,-0.1084,-0.1076,-0.1077,-0.1074,-0.1088,-0.1098,-0.1099,-0.1111,-0.1105,-0.1105,-0.1106,-0.1106,-0.1189,-0.1191,0,0,0,0,0,0,-0.1019,-0.103,-0.1051,-0.1053,-0.1036,-0.1053,-0.1057,-0.1065,-0.1084,-0.1086,-0.1074,-0.1075,-0.1097,-0.1098,-0.11,-0.1152,-0.1106,-0.1106,-0.1107,-0.1187,-0.1189,-0.1191,0,0,0,0,0,0,-0.1018,-0.1021,-0.105,-0.1038,-0.1042,-0.1053,-0.1063,-0.1066,-0.1086,-0.1082,-0.1085,-0.1092,-0.1097,-0.1099,-0.1131,-0.1151,-0.1107,-0.1107,-0.1185,-0.1188,-0.119,-0.1229,0,0,0,0,0,0,-0.1017,-0.1021,-0.1036,-0.1038,-0.1042,-0.1065,-0.1063,-0.1066,-0.1082,-0.1084,-0.1098,-0.1099,-0.1097,-0.1131,-0.1132,-0.1151,-0.1108,-0.1183,-0.1186,-0.1189,-0.1226,-0.1233,-0.1239,0,0,0,0,0,-0.1017,-0.1025,-0.1037,-0.104,-0.1059,-0.1065,-0.1069,-0.1078,-0.1083,-0.1096,-0.1117,-0.1099,-0.1152,-0.1133,-0.1134,-0.1154,-0.1181,-0.1185,-0.1189,-0.1223,-0.1231,-0.1239,0,0,0,0,0,0,-0.1016,-0.1028,-0.1041,-0.1053,-0.1065,-0.1068,-0.1079,-0.1086,-0.1113,-0.1121,-0.1121,-0.1124,-0.1161,-0.1157,-0.1136,-0.1191,-0.1164,-0.1168,-0.1189,-0.1197,-0.1204,-0.1203,-0.1109,0,0,0,0,0,-0.1024,-0.1036,-0.1048,-0.1059,-0.1068,-0.108,-0.1088,-0.1096,-0.1111,-0.1123,-0.1143,-0.1162,-0.1177,-0.1187,-0.1204,-0.1231,-0.122,-0.1247,-0.1253,-0.1259,-0.1262,-0.1277,-0.1285,-0.1204,-0.1204,-0.1204,0,0,-0.1026,-0.1032,-0.1041,-0.106,-0.1072,-0.1098,-0.1086,-0.1101,-0.1128,-0.112,-0.1177,-0.1187,-0.1192,-0.1228,-0.1243,-0.1227,-0.1275,-0.1264,-0.1268,-0.1268,-0.1282,-0.129,-0.1297,-0.1207,-0.1206,-0.1206,0,0,-0.1031,-0.1046,-0.1064,-0.1082,-0.1102,-0.1111,-0.1119,-0.1145,-0.1165,-0.1209,-0.1215,-0.1243,-0.1273,-0.1284,-0.1288,-0.1342,-0.1312,-0.1347,-0.1374,-0.139,-0.1396,-0.1401,-0.1384,-0.1388,-0.1346,-0.1346,-0.1346,0,-0.104,-0.1064,-0.1069,-0.1096,-0.1114,-0.1122,-0.1153,-0.1173,-0.1212,-0.123,-0.1234,-0.1293,-0.1299,-0.133,-0.1352,-0.1356,-0.1348,-0.1338,-0.1396,-0.1401,-0.1406,-0.1388,-0.1391,-0.1348,-0.1348,-0.1348,-0.1348,0,-0.1057,-0.1094,-0.1103,-0.1147,-0.1166,-0.1188,-0.1216,-0.1248,-0.1271,-0.1291,-0.1339,-0.1358,-0.1386,-0.1396,-0.1389,-0.1428,-0.1405,-0.1403,-0.137,-0.1416,-0.1394,-0.1397,-0.1352,-0.1351,-0.135,-0.135,0,0,-0.104,-0.1107,-0.1116,-0.115,-0.1197,-0.1209,-0.1258,-0.1296,-0.1323,-0.1368,-0.1405,-0.1442,-0.1447,-0.1454,-0.1453,-0.1468,-0.1493,-0.1451,-0.1451,-0.1423,-0.1504,-0.1395,-0.1387,-0.1499,-0.15,-0.1501,-0.1469,0,-0.1061,-0.1122,-0.1149,-0.1212,-0.1247,-0.1275,-0.1316,-0.135,-0.1379,-0.1421,-0.1438,-0.1475,-0.1468,-0.1482,-0.1499,-0.1502,-0.1504,-0.15,-0.1473,-0.1472,-0.136,-0.1389,-0.1505,-0.1471,-0.1472,-0.1472,-0.1472,0,-0.107,-0.1114,-0.1183,-0.1249,-0.1266,-0.1304,-0.1355,-0.1392,-0.144,-0.1462,-0.1496,-0.151,-0.1545,-0.1531,-0.1551,-0.1547,-0.1528,-0.1523,-0.1521,-0.1408,-0.1369,-0.142,-0.1477,-0.1477,-0.1476,-0.1476,-0.1476,0,-0.1044,-0.113,-0.1185,-0.1213,-0.1292,-0.1324,-0.1358,-0.1408,-0.1436,-0.1489,-0.151,-0.155,-0.1567,-0.1574,-0.1558,-0.1561,-0.1562,-0.1562,-0.144,-0.1431,-0.152,-0.1514,-0.1566,-0.1566,-0.1566,-0.1566,-0.1566,0,-0.1042,-0.1088,-0.1182,-0.1214,-0.1271,-0.1321,-0.1372,-0.1408,-0.1458,-0.1478,-0.1528,-0.1538,-0.1582,-0.1583,-0.1568,-0.1501,-0.1566,-0.1442,-0.142,-0.1535,-0.1533,-0.152,-0.1515,-0.1565,-0.1565,-0.1565,-0.1566,0,-0.1008,-0.1072,-0.1141,-0.1236,-0.1265,-0.1303,-0.1376,-0.1396,-0.1454,-0.148,-0.1498,-0.1541,-0.153,-0.1542,-0.1541,-0.1493,-0.1457,-0.1411,-0.1514,-0.1499,-0.1311,-0.1309,-0.1279,-0.1275,-0.1271,-0.1268,-0.1266,0,-0.0997,-0.1032,-0.1147,-0.1176,-0.1225,-0.1287,-0.1314,-0.1385,-0.1397,-0.1459,-0.1453,-0.1475,-0.1483,-0.1384,-0.1418,-0.137,-0.1351,-0.1325,-0.1338,-0.1302,-0.1284,-0.1288,-0.129,-0.1261,-0.126,-0.1259,-0.1258,0,-0.0973,-0.1022,-0.1073,-0.1135,-0.1178,-0.1221,-0.1264,-0.1269,-0.1327,-0.1403,-0.136,-0.1343,-0.1317,-0.1302,-0.1264,-0.1237,-0.1349,-0.1289,-0.1297,-0.1309,-0.128,-0.1266,-0.1273,-0.1246,-0.1248,-0.1249,-0.125,0,-0.0944,-0.0965,-0.1023,-0.1063,-0.1115,-0.1117,-0.1163,-0.1159,-0.1184,-0.1251,-0.1233,-0.1247,-0.1294,-0.123,-0.1203,-0.1162,-0.1148,-0.112,-0.1136,-0.115,-0.1123,-0.1068,-0.0948,0,0,0,0,0,-0.0904,-0.0899,-0.0936,-0.0964,-0.101,-0.1035,-0.11,-0.114,-0.121,-0.1141,-0.118,-0.1144,-0.1097,-0.1115,-0.1042,-0.115,-0.1158,-0.1063,-0.1137,-0.1181,-0.1194,-0.1176,0,0,0,0,0,0,-0.0867,-0.0895,-0.0901,-0.0865,-0.086,-0.089,-0.0928,-0.0982,-0.0952,-0.103,-0.1006,-0.107,-0.1038,-0.1104,-0.1012,-0.1017,-0.104,-0.1085,-0.1082,-0.1173,-0.1185,-0.1196,-0.1182,0,0,0,0,0]},{"header":{"parameterUnit":"m.s-1","parameterCategory":2,"la1":30.2991,"la2":30.254,"lo1":-89.0895,"lo2":-89.0444,"dy":0.0017,"dx":0.0017,"nx":28,"ny":28,"refTime":"2024-12-31T09:00:00:Z","depth":"4","parameterNumber":3,"parameterNumberName":"V-component_of_CURRENTS"},"data":[0,0,0,0,0,0,0,0,0,0,0,0,0,0,0,0,0,0,0,0,0,0,0,0,0,0,0,0,0,0,0,0,0,0,0,0,0,0,0,0,0,0,0,0,0,0,0,0,0,0,0,0,0,0,0,0,0,0,0.0126,0.0127,0,0.0164,0.0165,0.0166,0.0206,0.0206,0.0206,0.0207,0.0273,0.0275,0.0276,0,0,0,0,0,0,0,0,0,0,0,0,0,0.0113,0.0113,0.0126,0.0127,0.0127,0.0164,0.0165,0.0166,0.0205,0.0206,0.0207,0.0207,0.0273,0.0275,0.0276,0,0,0,0,0,0,0,0,0,0,0,0,0,0.0133,0.0113,0.0126,0.015,0.0153,0.0164,0.0165,0.0166,0.0205,0.0206,0.0207,0.0207,0.0272,0.0274,0.0277,0.0277,0,0,0.0283,0.0284,0,0,0,0,0,0,0,0,0.0132,0.0134,0.0146,0.0149,0.0151,0.018,0.0185,0.0204,0.0205,0.0187,0.0207,0.0208,0.0243,0.0248,0.0255,0.028,0.0282,0.0283,0.0284,0.0285,0.0286,0,0,0,0,0,0,0,0.013,0.0132,0.0143,0.0147,0.015,0.0168,0.0171,0.0189,0.0213,0.0189,0.0191,0.0193,0.0245,0.0253,0.0257,0.0283,0.0283,0.0285,0.0286,0.0287,0.0324,0.0324,0,0,0,0,0,0,0.0121,0.0131,0.0142,0.0144,0.0141,0.0167,0.0171,0.0171,0.0212,0.0218,0.0192,0.0195,0.0249,0.0255,0.026,0.027,0.0285,0.0287,0.0288,0.0325,0.0324,0.0324,0,0,0,0,0,0,0.012,0.0121,0.014,0.0137,0.0141,0.0166,0.0166,0.0171,0.0182,0.0214,0.0222,0.0197,0.025,0.0257,0.0272,0.0272,0.0288,0.029,0.0325,0.0324,0.0324,0.0285,0,0,0,0,0,0,0.0119,0.0121,0.0114,0.0136,0.014,0.0143,0.0166,0.0172,0.0181,0.0184,0.0221,0.0227,0.0251,0.0269,0.0274,0.0275,0.0292,0.0325,0.0325,0.0324,0.0286,0.0283,0.028,0,0,0,0,0,0.0119,0.0109,0.0114,0.0115,0.0132,0.0142,0.0146,0.0168,0.018,0.018,0.0204,0.0226,0.027,0.027,0.0276,0.0278,0.0325,0.0325,0.0324,0.0288,0.0284,0.028,0,0,0,0,0,0,0.0095,0.0112,0.0118,0.0112,0.0123,0.0148,0.0151,0.0164,0.0182,0.0188,0.0221,0.0229,0.0241,0.0263,0.0262,0.0288,0.0302,0.0303,0.0272,0.0269,0.0266,0.0266,0.0293,0,0,0,0,0,0.0086,0.0087,0.0103,0.0097,0.0103,0.0125,0.0132,0.0146,0.0165,0.0175,0.0198,0.0224,0.0243,0.0258,0.0275,0.0289,0.0313,0.0295,0.0292,0.029,0.0294,0.033,0.0331,0.0322,0.0322,0.0322,0,0,0.0077,0.0084,0.0085,0.0092,0.0106,0.0107,0.0132,0.014,0.0145,0.0179,0.0192,0.021,0.0242,0.0255,0.0264,0.0276,0.0301,0.0289,0.0286,0.0293,0.033,0.0331,0.0332,0.0322,0.0322,0.0322,0,0,0.0056,0.0064,0.0058,0.0064,0.0076,0.0093,0.0092,0.0114,0.0131,0.014,0.0166,0.0185,0.0212,0.0238,0.0255,0.0246,0.0278,0.025,0.0243,0.0277,0.0278,0.028,0.0294,0.0297,0.0255,0.0255,0.0255,0,0.0039,0.0035,0.0057,0.0049,0.0051,0.0083,0.0075,0.0095,0.0118,0.0132,0.0139,0.0184,0.0207,0.0235,0.0231,0.024,0.0258,0.0253,0.0273,0.0276,0.0278,0.0292,0.0296,0.0253,0.0253,0.0253,0.0253,0,0.0019,0.001,0.0008,0.0011,0.0016,0.0015,0.0042,0.0055,0.0077,0.0099,0.0126,0.0158,0.0188,0.0196,0.0211,0.0238,0.0242,0.0259,0.0282,0.0276,0.0291,0.0296,0.025,0.0251,0.0251,0.0252,0,0,-0.0003,-0.0008,-0.0007,-0.002,-0.0005,-0.0003,0.0011,0.0034,0.0047,0.0078,0.0095,0.0133,0.0156,0.0176,0.0202,0.0234,0.0255,0.0251,0.0253,0.0263,0.0317,0.0293,0.0296,0.0276,0.0277,0.0278,0.0315,0,-0.0027,-0.0056,-0.0043,-0.0065,-0.0078,-0.0047,-0.004,-0.0013,0.002,0.0045,0.0097,0.0117,0.0149,0.0157,0.0197,0.0235,0.0269,0.0243,0.0323,0.0325,0.0305,0.0302,0.0281,0.0319,0.032,0.0321,0.0321,0,-0.0047,-0.0067,-0.0099,-0.0111,-0.0111,-0.0117,-0.0093,-0.0082,-0.0029,-0.0006,0.0041,0.008,0.0128,0.0153,0.0238,0.0219,0.0267,0.0302,0.0305,0.0304,0.0311,0.0332,0.033,0.033,0.0329,0.0328,0.0328,0,-0.0078,-0.01,-0.0129,-0.0136,-0.0145,-0.0147,-0.0139,-0.0099,-0.0092,-0.0037,-0.003,0.0048,0.0069,0.0151,0.023,0.0234,0.0319,0.0336,0.0364,0.0363,0.0391,0.0389,0.0406,0.0406,0.0406,0.0406,0.0406,0,-0.0111,-0.0134,-0.0149,-0.0172,-0.0204,-0.0186,-0.02,-0.0176,-0.0146,-0.0143,-0.0063,-0.0047,0.0071,0.0137,0.0219,0.0298,0.0316,0.0362,0.0375,0.037,0.0366,0.0393,0.0391,0.0407,0.0407,0.0407,0.0407,0,-0.0151,-0.0156,-0.0202,-0.0222,-0.0229,-0.0253,-0.0261,-0.0264,-0.0228,-0.0222,-0.0212,-0.0124,-0.0037,0.008,0.0203,0.0266,0.0355,0.0384,0.0353,0.0363,0.0377,0.0372,0.0415,0.0414,0.0414,0.0414,0.0413,0,-0.0179,-0.0206,-0.0251,-0.0283,-0.0299,-0.0326,-0.0344,-0.0316,-0.0317,-0.0271,-0.0274,-0.0188,-0.0117,0.0039,0.0163,0.0319,0.0346,0.0385,0.0401,0.0372,0.038,0.0376,0.0372,0.0413,0.0413,0.0413,0.0413,0,-0.0243,-0.0256,-0.0295,-0.0352,-0.0387,-0.0421,-0.0437,-0.0443,-0.0404,-0.0383,-0.0318,-0.0217,-0.012,0.0025,0.0144,0.0259,0.0355,0.0381,0.0383,0.0399,0.037,0.0378,0.0374,0.0411,0.0411,0.0412,0.0412,0,-0.0293,-0.033,-0.037,-0.0416,-0.0464,-0.0488,-0.0492,-0.0477,-0.0465,-0.0397,-0.0382,-0.025,-0.017,-0.0007,0.0102,0.0211,0.0244,0.0279,0.0287,0.029,0.0247,0.0191,0.0188,0,0,0,0,0,-0.0338,-0.0369,-0.0424,-0.0469,-0.0512,-0.0524,-0.0541,-0.0529,-0.0495,-0.0457,-0.041,-0.0309,-0.0131,-0.0052,0.0054,0.0089,0.0253,0.0215,0.0295,0.0404,0.0406,0.0375,0,0,0,0,0,0,-0.0368,-0.0423,-0.0434,-0.0492,-0.0522,-0.0558,-0.0563,-0.0541,-0.0505,-0.0458,-0.036,-0.0298,-0.0123,-0.0192,0.0052,0.0085,0.0146,0.0303,0.0305,0.0404,0.0405,0.0406,0.0375,0,0,0,0,0]}]]